Time,TemperatureF,DewpointF,PressureIn,WindDirection,WindDirectionDegrees,WindSpeedMPH,WindSpeedGustMPH,Humidity,HourlyPrecipIn,Conditions,Clouds,dailyrainin,SoftwareType,DateUTC
2013-05-09 00:00:00,60.4,58.7,30.00,SE,143,0.0,11.0,94,0.00,,,0.04,Wunderground v.1.15,2013-05-09 04:00:00,
2013-05-09 00:10:00,59.9,58.5,30.00,SE,143,0.0,0.0,95,0.00,,,0.00,Wunderground v.1.15,2013-05-09 04:10:00,
2013-05-09 00:20:00,59.2,57.8,30.00,SE,143,0.0,0.0,95,0.00,,,0.00,Wunderground v.1.15,2013-05-09 04:20:00,
2013-05-09 00:30:00,59.0,57.9,30.00,SE,143,0.0,0.0,96,0.00,,,0.00,Wunderground v.1.15,2013-05-09 04:30:00,
2013-05-09 00:40:00,58.9,58.1,29.98,SE,143,0.0,0.0,97,0.00,,,0.00,Wunderground v.1.15,2013-05-09 04:40:00,
2013-05-09 00:50:00,58.6,57.8,29.98,SE,143,0.0,0.0,97,0.00,,,0.00,Wunderground v.1.15,2013-05-09 04:50:00,
2013-05-09 01:00:00,57.6,56.8,29.98,SE,143,0.0,0.0,97,0.00,,,0.00,Wunderground v.1.15,2013-05-09 05:00:00,
2013-05-09 01:10:00,57.5,56.9,29.98,SE,143,0.0,3.0,98,0.00,,,0.00,Wunderground v.1.15,2013-05-09 05:10:00,
2013-05-09 01:20:00,57.2,56.6,29.97,SE,143,0.0,3.0,98,0.00,,,0.00,Wunderground v.1.15,2013-05-09 05:20:00,
2013-05-09 01:30:00,56.7,56.1,29.97,SE,143,0.0,3.0,98,0.00,,,0.00,Wunderground v.1.15,2013-05-09 05:30:00,
2013-05-09 01:40:00,56.5,55.9,29.97,SE,143,0.0,3.0,98,0.00,,,0.00,Wunderground v.1.15,2013-05-09 05:40:00,
2013-05-09 01:50:00,56.2,55.6,29.97,SE,143,0.0,3.0,98,0.00,,,0.00,Wunderground v.1.15,2013-05-09 05:50:00,
2013-05-09 02:00:00,55.4,54.8,29.97,SE,143,0.0,3.0,98,0.00,,,0.00,Wunderground v.1.15,2013-05-09 06:00:00,
2013-05-09 02:10:00,56.0,55.7,29.97,SE,143,0.0,3.0,99,0.00,,,0.00,Wunderground v.1.15,2013-05-09 06:10:00,
2013-05-09 02:20:00,56.0,55.7,29.97,SE,143,0.0,3.0,99,0.00,,,0.00,Wunderground v.1.15,2013-05-09 06:20:00,
2013-05-09 02:30:00,55.3,55.0,29.97,SE,143,0.0,3.0,99,0.00,,,0.00,Wunderground v.1.15,2013-05-09 06:30:00,
2013-05-09 02:40:00,55.4,55.1,29.97,SE,143,0.0,3.0,99,0.00,,,0.00,Wunderground v.1.15,2013-05-09 06:40:00,
2013-05-09 02:50:00,54.8,54.5,29.96,SE,143,0.0,3.0,99,0.00,,,0.00,Wunderground v.1.15,2013-05-09 06:50:00,
2013-05-09 03:00:00,54.8,54.5,29.97,SE,143,0.0,3.0,99,0.00,,,0.00,Wunderground v.1.15,2013-05-09 07:00:00,
2013-05-09 03:10:00,54.5,54.2,29.97,SE,143,0.0,3.0,99,0.00,,,0.00,Wunderground v.1.15,2013-05-09 07:10:00,
2013-05-09 03:20:00,54.2,53.9,29.96,SE,143,0.0,3.0,99,0.00,,,0.00,Wunderground v.1.15,2013-05-09 07:20:00,
2013-05-09 03:30:00,54.2,53.9,29.96,SE,143,0.0,3.0,99,0.00,,,0.00,Wunderground v.1.15,2013-05-09 07:30:00,
2013-05-09 03:40:00,53.8,53.5,29.96,SE,143,0.0,3.0,99,0.00,,,0.00,Wunderground v.1.15,2013-05-09 07:40:00,
2013-05-09 03:50:00,53.3,53.0,29.95,SE,143,0.0,3.0,99,0.00,,,0.00,Wunderground v.1.15,2013-05-09 07:50:00,
2013-05-09 04:00:00,53.2,52.9,29.95,SE,143,0.0,3.0,99,0.00,,,0.00,Wunderground v.1.15,2013-05-09 08:00:00,
2013-05-09 04:10:00,52.8,52.5,29.95,SE,143,0.0,3.0,99,0.00,,,0.00,Wunderground v.1.15,2013-05-09 08:10:00,
2013-05-09 04:20:00,52.8,52.5,29.95,SE,143,0.0,3.0,99,0.00,,,0.00,Wunderground v.1.15,2013-05-09 08:20:00,
2013-05-09 04:30:00,51.9,51.6,29.95,SE,143,0.0,3.0,99,0.00,,,0.00,Wunderground v.1.15,2013-05-09 08:30:00,
2013-05-09 04:40:00,52.0,51.7,29.95,SE,143,0.0,3.0,99,0.00,,,0.00,Wunderground v.1.15,2013-05-09 08:40:00,
2013-05-09 04:50:00,51.6,51.3,29.95,SE,143,0.0,3.0,99,0.00,,,0.00,Wunderground v.1.15,2013-05-09 08:50:00,
2013-05-09 05:00:00,51.4,51.4,29.95,SE,143,0.0,3.0,100,0.00,,,0.00,Wunderground v.1.15,2013-05-09 09:00:00,
2013-05-09 05:10:00,50.8,50.8,29.94,SE,143,0.0,3.0,100,0.00,,,0.00,Wunderground v.1.15,2013-05-09 09:10:00,
2013-05-09 05:20:00,50.5,50.5,29.95,SE,143,0.0,3.0,100,0.00,,,0.00,Wunderground v.1.15,2013-05-09 09:20:00,
2013-05-09 05:30:00,50.8,50.8,29.95,SE,143,0.0,3.0,100,0.00,,,0.00,Wunderground v.1.15,2013-05-09 09:30:00,
2013-05-09 05:40:00,50.1,50.1,29.95,SE,143,0.0,3.0,100,0.00,,,0.00,Wunderground v.1.15,2013-05-09 09:40:00,
2013-05-09 05:50:00,50.1,50.1,29.95,SE,143,0.0,3.0,100,0.00,,,0.00,Wunderground v.1.15,2013-05-09 09:50:00,
2013-05-09 06:00:00,50.1,50.1,29.95,SE,143,0.0,3.0,100,0.00,,,0.00,Wunderground v.1.15,2013-05-09 10:00:00,
2013-05-09 06:10:00,49.6,49.6,29.95,SE,143,0.0,0.0,100,0.00,,,0.00,Wunderground v.1.15,2013-05-09 10:10:00,
2013-05-09 06:20:00,50.1,50.1,29.95,SE,143,0.0,0.0,100,0.00,,,0.00,Wunderground v.1.15,2013-05-09 10:20:00,
2013-05-09 06:30:00,49.9,49.9,29.95,SE,143,0.0,0.0,100,0.00,,,0.00,Wunderground v.1.15,2013-05-09 10:30:00,
2013-05-09 06:40:00,50.1,50.1,29.95,SE,143,0.0,0.0,100,0.00,,,0.00,Wunderground v.1.15,2013-05-09 10:40:00,
2013-05-09 06:50:00,50.4,50.4,29.95,SE,143,0.0,0.0,100,0.00,,,0.00,Wunderground v.1.15,2013-05-09 10:50:00,
2013-05-09 07:00:00,50.2,50.2,29.95,SE,143,0.0,0.0,100,0.00,,,0.00,Wunderground v.1.15,2013-05-09 11:00:00,
2013-05-09 07:10:00,50.1,50.1,29.95,SE,143,0.0,0.0,100,0.00,,,0.00,Wunderground v.1.15,2013-05-09 11:10:00,
2013-05-09 07:20:00,50.2,50.2,29.95,SE,143,0.0,0.0,100,0.00,,,0.00,Wunderground v.1.15,2013-05-09 11:20:00,
2013-05-09 07:30:00,50.5,50.5,29.95,SE,143,0.0,0.0,100,0.00,,,0.00,Wunderground v.1.15,2013-05-09 11:30:00,
2013-05-09 07:40:00,51.0,51.0,29.95,SE,143,0.0,0.0,100,0.00,,,0.00,Wunderground v.1.15,2013-05-09 11:40:00,
2013-05-09 07:50:00,52.2,52.2,29.95,SE,143,0.0,0.0,100,0.00,,,0.00,Wunderground v.1.15,2013-05-09 11:50:00,
2013-05-09 08:00:00,54.1,54.1,29.95,SE,143,0.0,0.0,100,0.00,,,0.00,Wunderground v.1.15,2013-05-09 12:00:00,
2013-05-09 08:10:00,55.3,55.3,29.95,SE,143,0.0,0.0,100,0.00,,,0.00,Wunderground v.1.15,2013-05-09 12:10:00,
2013-05-09 08:20:00,56.2,56.2,29.95,SE,143,0.0,0.0,100,0.00,,,0.00,Wunderground v.1.15,2013-05-09 12:20:00,
2013-05-09 08:30:00,56.7,56.7,29.95,SE,143,0.0,0.0,100,0.00,,,0.00,Wunderground v.1.15,2013-05-09 12:30:00,
2013-05-09 08:40:00,57.0,57.0,29.95,ESE,121,0.0,0.0,100,0.00,,,0.00,Wunderground v.1.15,2013-05-09 12:40:00,
2013-05-09 08:50:00,57.6,57.6,29.95,ESE,121,0.0,0.0,100,0.00,,,0.00,Wunderground v.1.15,2013-05-09 12:50:00,
2013-05-09 09:00:00,58.4,58.4,29.95,ESE,121,0.0,0.0,100,0.00,,,0.00,Wunderground v.1.15,2013-05-09 13:00:00,
2013-05-09 09:10:00,58.0,57.4,29.95,ESE,121,0.0,0.0,98,0.00,,,0.00,Wunderground v.1.15,2013-05-09 13:10:00,
2013-05-09 09:20:00,58.6,57.5,29.95,ESE,121,0.0,0.0,96,0.00,,,0.00,Wunderground v.1.15,2013-05-09 13:20:00,
2013-05-09 09:30:00,60.2,57.9,29.95,ESE,121,0.0,0.0,92,0.00,,,0.00,Wunderground v.1.15,2013-05-09 13:30:00,
2013-05-09 09:40:00,61.3,55.8,29.95,ESE,121,0.0,0.0,82,0.00,,,0.00,Wunderground v.1.15,2013-05-09 13:40:00,
2013-05-09 09:50:00,62.9,57.0,29.94,ESE,121,0.0,0.0,81,0.00,,,0.00,Wunderground v.1.15,2013-05-09 13:50:00,
2013-05-09 10:00:00,63.9,57.3,29.94,WSW,254,0.0,0.0,79,0.00,,,0.00,Wunderground v.1.15,2013-05-09 14:00:00,
2013-05-09 10:10:00,64.5,52.5,29.94,South,177,0.0,3.0,65,0.00,,,0.00,Wunderground v.1.15,2013-05-09 14:10:00,
2013-05-09 10:20:00,65.8,52.0,29.93,SSW,202,0.0,1.0,61,0.00,,,0.00,Wunderground v.1.15,2013-05-09 14:20:00,
2013-05-09 10:30:00,66.6,54.0,29.93,SSE,158,0.0,0.0,64,0.00,,,0.00,Wunderground v.1.15,2013-05-09 14:30:00,
2013-05-09 10:40:00,66.4,52.5,29.93,SSW,202,0.0,0.0,61,0.00,,,0.00,Wunderground v.1.15,2013-05-09 14:40:00,
2013-05-09 10:50:00,67.4,54.8,29.93,SSW,194,0.0,0.0,64,0.00,,,0.00,Wunderground v.1.15,2013-05-09 14:50:00,
2013-05-09 11:00:00,67.8,53.4,29.93,ESE,108,1.0,1.0,60,0.00,,,0.00,Wunderground v.1.15,2013-05-09 15:00:00,
2013-05-09 11:10:00,67.3,53.4,29.93,SSE,162,0.0,0.0,61,0.00,,,0.00,Wunderground v.1.15,2013-05-09 15:10:00,
2013-05-09 11:20:00,67.3,53.8,29.93,SSE,162,0.0,0.0,62,0.00,,,0.00,Wunderground v.1.15,2013-05-09 15:20:00,
2013-05-09 11:30:00,66.9,53.5,29.93,SSW,195,0.0,0.0,62,0.00,,,0.00,Wunderground v.1.15,2013-05-09 15:30:00,
2013-05-09 11:40:00,66.4,54.3,29.92,SE,131,1.0,1.0,65,0.00,,,0.00,Wunderground v.1.15,2013-05-09 15:40:00,
2013-05-09 11:50:00,66.8,53.8,29.92,East,93,0.0,0.0,63,0.00,,,0.00,Wunderground v.1.15,2013-05-09 15:50:00,
2013-05-09 12:00:00,67.9,52.1,29.92,SW,220,1.0,1.0,57,0.00,,,0.00,Wunderground v.1.15,2013-05-09 16:00:00,
2013-05-09 12:10:00,69.1,54.2,29.92,South,185,1.0,1.0,59,0.00,,,0.00,Wunderground v.1.15,2013-05-09 16:10:00,
2013-05-09 12:20:00,69.3,52.9,29.92,SW,227,0.0,3.0,56,0.00,,,0.00,Wunderground v.1.15,2013-05-09 16:20:00,
2013-05-09 12:30:00,69.4,52.0,29.92,SSE,156,1.0,1.0,54,0.00,,,0.00,Wunderground v.1.15,2013-05-09 16:30:00,
2013-05-09 12:40:00,69.1,53.7,29.92,SW,231,1.0,7.0,58,0.00,,,0.00,Wunderground v.1.15,2013-05-09 16:40:00,
2013-05-09 12:50:00,69.1,53.7,29.91,SE,131,1.0,1.0,58,0.00,,,0.00,Wunderground v.1.15,2013-05-09 16:50:00,
2013-05-09 13:00:00,69.8,54.4,29.91,East,89,1.0,4.0,58,0.00,,,0.01,Wunderground v.1.15,2013-05-09 17:00:00,
2013-05-09 13:10:00,68.3,51.5,29.91,SSE,166,1.0,7.0,55,0.00,,,0.01,Wunderground v.1.15,2013-05-09 17:10:00,
2013-05-09 13:20:00,67.3,52.0,29.91,ESE,112,1.0,1.0,58,0.00,,,0.01,Wunderground v.1.15,2013-05-09 17:20:00,
2013-05-09 13:30:00,67.9,52.6,29.91,SE,137,1.0,1.0,58,0.00,,,0.01,Wunderground v.1.15,2013-05-09 17:30:00,
2013-05-09 13:40:00,68.3,51.5,29.91,SE,139,0.0,7.0,55,0.00,,,0.01,Wunderground v.1.15,2013-05-09 17:40:00,
2013-05-09 13:50:00,68.4,52.6,29.90,SE,131,0.0,7.0,57,0.00,,,0.01,Wunderground v.1.15,2013-05-09 17:50:00,
2013-05-09 14:00:00,68.8,53.4,29.90,SE,140,1.0,7.0,58,0.00,,,0.01,Wunderground v.1.15,2013-05-09 18:00:00,
2013-05-09 14:10:00,69.6,53.7,29.89,South,170,1.0,1.0,57,0.00,,,0.01,Wunderground v.1.15,2013-05-09 18:10:00,
2013-05-09 14:20:00,69.6,51.2,29.89,WSW,255,1.0,7.0,52,0.00,,,0.01,Wunderground v.1.15,2013-05-09 18:20:00,
2013-05-09 14:30:00,69.1,51.2,29.89,WSW,240,1.0,1.0,53,0.00,,,0.01,Wunderground v.1.15,2013-05-09 18:30:00,
2013-05-09 14:40:00,69.1,51.2,29.89,South,180,0.0,7.0,53,0.00,,,0.01,Wunderground v.1.15,2013-05-09 18:40:00,
2013-05-09 14:50:00,68.6,51.3,29.89,SSE,168,0.0,7.0,54,0.00,,,0.01,Wunderground v.1.15,2013-05-09 18:50:00,
2013-05-09 15:00:00,67.9,50.1,29.89,South,177,1.0,1.0,53,0.00,,,0.01,Wunderground v.1.15,2013-05-09 19:00:00,
2013-05-09 15:10:00,67.8,50.5,29.88,South,175,0.0,7.0,54,0.00,,,0.01,Wunderground v.1.15,2013-05-09 19:10:00,
2013-05-09 15:20:00,68.8,51.5,29.88,SSW,196,0.0,7.0,54,0.00,,,0.01,Wunderground v.1.15,2013-05-09 19:20:00,
2013-05-09 15:30:00,71.5,53.5,29.88,SSW,199,1.0,1.0,53,0.00,,,0.01,Wunderground v.1.15,2013-05-09 19:30:00,
2013-05-09 15:40:00,72.7,50.7,29.87,SW,216,1.0,7.0,46,0.00,,,0.01,Wunderground v.1.15,2013-05-09 19:40:00,
2013-05-09 15:50:00,72.3,50.4,29.86,South,181,1.0,1.0,46,0.00,,,0.01,Wunderground v.1.15,2013-05-09 19:50:00,
2013-05-09 16:00:00,70.6,49.4,29.86,South,178,0.0,7.0,47,0.00,,,0.01,Wunderground v.1.15,2013-05-09 20:00:00,
2013-05-09 16:10:00,68.4,52.1,29.86,ESE,121,2.0,2.0,56,0.00,,,0.01,Wunderground v.1.15,2013-05-09 20:10:00,
2013-05-09 16:20:00,65.2,53.1,29.86,ESE,112,3.0,7.0,65,0.00,,,0.01,Wunderground v.1.15,2013-05-09 20:20:00,
2013-05-09 16:30:00,65.0,51.2,29.86,NNW,328,1.0,7.0,61,0.00,,,0.01,Wunderground v.1.15,2013-05-09 20:30:00,
2013-05-09 16:40:00,63.2,52.9,29.86,NNE,28,3.0,3.0,69,0.00,,,0.01,Wunderground v.1.15,2013-05-09 20:40:00,
2013-05-09 16:50:00,62.3,52.8,29.86,ESE,113,3.0,3.0,71,0.00,,,0.01,Wunderground v.1.15,2013-05-09 20:50:00,
2013-05-09 17:00:00,62.3,53.5,29.86,North,350,2.0,2.0,73,0.00,,,0.01,Wunderground v.1.15,2013-05-09 21:00:00,
2013-05-09 17:10:00,61.6,56.0,29.87,North,11,1.0,1.0,82,0.00,,,0.01,Wunderground v.1.15,2013-05-09 21:10:00,
2013-05-09 17:20:00,61.0,56.8,29.86,North,11,0.0,7.0,86,0.00,,,0.01,Wunderground v.1.15,2013-05-09 21:20:00,
2013-05-09 17:30:00,60.7,57.1,29.86,North,11,0.0,7.0,88,0.00,,,0.01,Wunderground v.1.15,2013-05-09 21:30:00,
2013-05-09 17:40:00,60.5,56.3,29.87,ENE,73,0.0,7.0,86,0.00,,,0.01,Wunderground v.1.15,2013-05-09 21:40:00,
2013-05-09 17:50:00,60.4,55.9,29.87,NE,53,1.0,7.0,85,0.00,,,0.02,Wunderground v.1.15,2013-05-09 21:50:00,
2013-05-09 18:00:00,60.1,56.5,29.87,ENE,69,1.0,1.0,88,0.00,,,0.02,Wunderground v.1.15,2013-05-09 22:00:00,
2013-05-09 18:10:00,59.3,55.7,29.87,ENE,69,0.0,0.0,88,0.00,,,0.02,Wunderground v.1.15,2013-05-09 22:10:00,
2013-05-09 18:20:00,59.3,56.1,29.86,ENE,69,0.0,0.0,89,0.00,,,0.02,Wunderground v.1.15,2013-05-09 22:20:00,
2013-05-09 18:30:00,59.5,56.6,29.86,ENE,60,1.0,1.0,90,0.00,,,0.03,Wunderground v.1.15,2013-05-09 22:30:00,
2013-05-09 18:40:00,60.9,55.4,29.86,ENE,57,2.0,2.0,82,0.00,,,0.03,Wunderground v.1.15,2013-05-09 22:40:00,
2013-05-09 18:50:00,62.0,56.1,29.87,ENE,58,1.0,1.0,81,0.00,,,0.03,Wunderground v.1.15,2013-05-09 22:50:00,
2013-05-09 19:00:00,62.4,56.1,29.87,East,83,1.0,2.0,80,0.00,,,0.03,Wunderground v.1.15,2013-05-09 23:00:00,
2013-05-09 19:10:00,62.7,55.7,29.86,North,11,1.0,5.0,78,0.00,,,0.03,Wunderground v.1.15,2013-05-09 23:10:00,
2013-05-09 19:20:00,62.9,55.9,29.86,ENE,59,0.0,5.0,78,0.00,,,0.03,Wunderground v.1.15,2013-05-09 23:20:00,
2013-05-09 19:30:00,62.9,55.6,29.86,East,96,0.0,5.0,77,0.00,,,0.03,Wunderground v.1.15,2013-05-09 23:30:00,
2013-05-09 19:40:00,62.4,55.1,29.87,NE,45,0.0,5.0,77,0.00,,,0.03,Wunderground v.1.15,2013-05-09 23:40:00,
2013-05-09 19:50:00,61.6,54.3,29.88,NNE,26,0.0,5.0,77,0.00,,,0.03,Wunderground v.1.15,2013-05-09 23:50:00,
2013-05-09 20:00:00,60.9,54.7,29.88,SE,139,1.0,1.0,80,0.00,,,0.03,Wunderground v.1.15,2013-05-10 00:00:00,
2013-05-09 20:10:00,60.2,54.7,29.88,NNE,30,0.0,5.0,82,0.00,,,0.03,Wunderground v.1.15,2013-05-10 00:10:00,
2013-05-09 20:20:00,60.4,54.5,29.88,ENE,62,1.0,5.0,81,0.00,,,0.03,Wunderground v.1.15,2013-05-10 00:20:00,
2013-05-09 20:30:00,60.4,53.9,29.88,NE,55,2.0,5.0,79,0.00,,,0.03,Wunderground v.1.15,2013-05-10 00:30:00,
2013-05-09 20:40:00,60.5,54.0,29.89,NNE,33,2.0,5.0,79,0.00,,,0.03,Wunderground v.1.15,2013-05-10 00:40:00,
2013-05-09 20:50:00,60.1,54.9,29.89,ENE,64,1.0,1.0,83,0.00,,,0.03,Wunderground v.1.15,2013-05-10 00:50:00,
2013-05-09 21:00:00,59.9,54.4,29.89,ENE,68,2.0,2.0,82,0.00,,,0.03,Wunderground v.1.15,2013-05-10 01:00:00,
2013-05-09 21:10:00,59.9,54.4,29.90,NNE,33,1.0,1.0,82,0.00,,,0.03,Wunderground v.1.15,2013-05-10 01:10:00,
2013-05-09 21:20:00,59.8,54.3,29.90,ENE,75,1.0,5.0,82,0.00,,,0.03,Wunderground v.1.15,2013-05-10 01:20:00,
2013-05-09 21:30:00,59.3,53.8,29.90,NE,36,0.0,5.0,82,0.00,,,0.03,Wunderground v.1.15,2013-05-10 01:30:00,
2013-05-09 21:40:00,58.9,53.7,29.91,NE,55,1.0,1.0,83,0.00,,,0.03,Wunderground v.1.15,2013-05-10 01:40:00,
2013-05-09 21:50:00,57.5,53.7,29.91,NE,55,0.0,5.0,87,0.00,,,0.03,Wunderground v.1.15,2013-05-10 01:50:00,
2013-05-09 22:00:00,56.3,53.4,29.91,NE,55,0.0,5.0,90,0.00,,,0.03,Wunderground v.1.15,2013-05-10 02:00:00,
2013-05-09 22:10:00,56.2,53.6,29.91,NE,55,0.0,5.0,91,0.00,,,0.03,Wunderground v.1.15,2013-05-10 02:10:00,
2013-05-09 22:20:00,56.5,53.3,29.91,NE,55,0.0,5.0,89,0.00,,,0.03,Wunderground v.1.15,2013-05-10 02:20:00,
2013-05-09 22:30:00,56.0,52.8,29.91,NE,55,0.0,5.0,89,0.00,,,0.03,Wunderground v.1.15,2013-05-10 02:30:00,
2013-05-09 22:40:00,55.4,52.8,29.91,NE,55,0.0,5.0,91,0.00,,,0.03,Wunderground v.1.15,2013-05-10 02:40:00,
2013-05-09 22:50:00,55.1,53.1,29.91,NE,55,0.0,5.0,93,0.00,,,0.03,Wunderground v.1.15,2013-05-10 02:50:00,
2013-05-09 23:00:00,54.7,52.7,29.91,NE,55,0.0,5.0,93,0.00,,,0.03,Wunderground v.1.15,2013-05-10 03:00:00,
2013-05-09 23:10:00,54.8,53.1,29.91,NE,55,0.0,5.0,94,0.00,,,0.03,Wunderground v.1.15,2013-05-10 03:10:00,
2013-05-09 23:20:00,54.5,52.5,29.90,NE,55,0.0,5.0,93,0.00,,,0.03,Wunderground v.1.15,2013-05-10 03:20:00,
2013-05-09 23:30:00,54.4,52.4,29.90,NE,55,0.0,5.0,93,0.00,,,0.03,Wunderground v.1.15,2013-05-10 03:30:00,
2013-05-09 23:40:00,53.9,52.2,29.91,NE,55,0.0,5.0,94,0.00,,,0.03,Wunderground v.1.15,2013-05-10 03:40:00,
2013-05-09 23:50:00,54.5,53.1,29.90,NE,55,0.0,5.0,95,0.00,,,0.03,Wunderground v.1.15,2013-05-10 03:50:00,